Location: *
(47.1603°N, 4.9544°E)
Time: 14:17:13
(UTC+00:00)

Daily predictions for brighter satellites

Satellite Brightness Start Highest point End
(mag) Time Altitude Azimuth Time Altitude Azimuth Time Altitude Azimuth
H-2A R/B 2.2 18:43:30 10° SSE 18:48:37 59° ENE 18:53:38 10° N
SJ-11-01 4.3 18:46:03 10° SSE 18:50:45 80° ENE 18:55:31 10° NNW
NOSS 3-4 (A) 4.4 18:44:59 10° NW 18:51:32 45° NE 18:58:41 10° ESE
NOSS 3-4 (C) 4.4 18:45:06 10° NW 18:51:38 45° NE 18:58:47 10° ESE
Cosmos 1656 Rocket 4.2 18:48:23 10° NNW 18:53:49 44° NE 18:59:09 10° SE
ADEOS Rocket 3.7 18:47:46 10° N 18:54:13 64° WNW 19:00:00 10° SSW
SL-16 R/B 3.4 18:50:59 10° SW 18:56:27 48° NW 19:01:56 10° NNE
STARLINK-1228 4.4 18:54:52 10° NW 18:57:21 25° N 18:59:50 10° ENE
CZ-2C R/B 3.8 18:54:06 10° NE 18:57:53 20° E 19:01:40 10° SE
NOSS 3-3 (A) 3.9 18:55:16 10° SSW 19:01:03 69° SE 19:07:37 10° NE
NOSS 3-3 (C) 3.9 18:55:22 10° SSW 19:01:09 69° SE 19:07:42 10° NE
Cosmos 2251 Rocket 3.5 18:56:42 10° SSW 19:02:02 76° ESE 19:07:27 10° NNE
Cosmos 1726 2.5 18:58:42 10° SSE 19:02:14 43° E 19:05:49 10° NNE
ARGOS 3.2 18:59:03 10° SSE 19:04:24 68° ENE 19:09:45 10° N
MONITOR-E 3.7 19:03:34 10° SSE 19:06:10 63° ENE 19:08:47 10° N
Cosmos 2184 Rocket 4.1 18:59:59 10° N 19:06:13 59° ENE 19:12:21 10° SSE
ISS -2.1 19:03:50 10° W 19:06:47 28° SW 19:09:42 10° SSE
SJ-6B 3.0 19:03:50 10° SSE 19:07:52 58° ENE 19:11:57 10° N
BREEZE M DEB (TANK) 4.3 19:08:20 10° SSE 19:10:25 15° ESE 19:13:39 10° E
Meteor 2-10 4.2 19:05:44 10° S 19:11:05 61° E 19:16:38 10° NNE
STARLINK-67 3.9 19:10:34 10° NW 19:12:52 27° NNE 19:14:43 13° ENE
USA 186 1.8 19:09:31 10° SSE 19:12:52 89° E 19:16:06 10° NNW
STARLINK-1229 4.5 19:12:12 10° NW 19:14:58 28° N 19:17:39 10° ENE
STARLINK-1271 4.5 19:12:39 10° NW 19:15:26 28° N 19:18:06 11° ENE
STARLINK-1234 4.3 19:12:49 10° NW 19:15:33 29° N 19:17:59 12° ENE
STARLINK-1270 4.5 19:13:08 10° NW 19:15:54 28° N 19:18:33 11° ENE
STARLINK-1154 4.5 19:13:34 10° NW 19:16:20 28° N 19:18:57 11° ENE
STARLINK-1197 4.5 19:14:29 10° NW 19:17:14 28° N 19:19:50 11° ENE
STARLINK-1189 4.5 19:14:56 10° NW 19:17:42 28° N 19:20:16 11° ENE
STARLINK-1198 4.5 19:15:23 10° NW 19:18:09 28° N 19:20:42 11° ENE
STARLINK-1209 4.3 19:15:44 10° NW 19:18:24 29° N 19:20:37 13° ENE
STARLINK-1188 4.5 19:15:50 10° NW 19:18:36 28° N 19:21:08 11° ENE
Cosmos 1603 3.6 19:13:20 10° SSW 19:18:57 84° ESE 19:24:36 10° NNE
IRIDIUM 104 4.3 19:14:02 10° N 19:19:18 84° E 19:24:31 10° S
STARLINK-1235 4.4 19:16:30 10° NW 19:19:20 30° N 19:21:46 13° ENE
STARLINK-1187 4.4 19:16:54 10° NW 19:19:44 29° N 19:22:12 12° ENE
FREGAT/IRIS 2.7 19:17:04 10° S 19:19:45 64° W 19:22:29 10° NNW
STARLINK-1199 4.5 19:17:46 10° NW 19:20:35 29° N 19:23:03 12° ENE
Cosmos 2058 Rocket 4.1 19:16:49 10° SE 19:20:36 27° E 19:24:24 10° NNE
STARLINK-1191 4.5 19:18:14 10° NW 19:21:03 29° N 19:23:29 12° ENE
STARLINK-1210 4.5 19:18:41 10° NW 19:21:29 29° N 19:23:55 12° ENE
Ariane Rocket 3.5 19:16:35 10° S 19:21:37 63° WSW 19:26:40 10° NNW
STARLINK-1221 4.5 19:19:08 10° NW 19:21:56 29° N 19:24:21 12° ENE
STARLINK-1219 4.4 19:19:34 10° NW 19:22:23 29° N 19:24:47 13° ENE
STARLINK-1222 4.4 19:20:03 10° NW 19:22:51 29° N 19:25:13 13° ENE
MOS 1 Rocket 4.2 19:18:12 10° NNE 19:23:08 36° E 19:28:07 10° SSE
STARLINK-1211 4.4 19:20:30 10° NW 19:23:19 29° N 19:25:39 13° ENE
STARLINK-1214 4.4 19:20:56 10° NW 19:23:45 29° N 19:26:05 13° ENE
ATLAS 2AS CENTAUR R/B 3.0 19:16:32 10° NW 19:24:12 65° NE 19:29:59 16° SE
STARLINK-1245 4.4 19:21:25 10° NW 19:24:13 29° N 19:26:30 13° ENE
Resurs 01 Rocket 2.4 19:21:42 16° SE 19:24:37 33° ENE 19:28:36 10° N
STARLINK-1238 4.4 19:21:50 10° NW 19:24:39 29° N 19:26:57 13° ENE
USA 234 3.9 19:19:30 10° ENE 19:25:08 30° SE 19:30:46 10° S
STARLINK-1205 4.4 19:22:46 10° NW 19:25:34 29° N 19:27:48 14° ENE
MOS 1 4.4 19:20:21 10° SSE 19:26:00 79° WSW 19:31:43 10° NNW
STARLINK-1204 4.4 19:23:14 10° NW 19:26:02 29° N 19:28:14 14° ENE
IRIDIUM 114 4.4 19:23:12 10° N 19:28:27 82° W 19:33:39 10° S
Meteor 1-16 Rocket 4.1 19:23:07 10° S 19:28:28 72° E 19:34:01 10° NNE
Cosmos 2154 Rocket 4.2 19:22:12 10° N 19:28:28 57° ENE 19:34:40 10° SSE
SeaSat 1 4.1 19:26:20 10° NNE 19:30:52 37° NW 19:35:22 10° WSW
Nadezhda 1 Rocket 4.1 19:25:12 10° SSE 19:31:25 57° E 19:37:37 10° NNE
Cosmos 1140 Rocket 4.3 19:27:05 10° SSE 19:31:31 29° E 19:35:55 10° NE
SL-4 R/B 1.7 19:28:20 10° SW 19:31:36 47° SSE 19:33:43 20° E
Cosmos 1726 Rocket 3.6 19:29:32 10° S 19:33:50 55° E 19:38:11 10° NNE
STARLINK-1201 4.4 19:31:24 10° NW 19:34:22 31° N 19:36:24 16° ENE
Cosmos 1340 Rocket 3.5 19:32:48 15° SSE 19:35:36 34° E 19:39:16 10° NNE
ATLAS 5 CENTAUR R/B 2.4 19:33:38 10° S 19:37:08 27° ESE 19:40:55 10° ENE
Cosmos 1825 Rocket 3.7 19:35:28 10° NNW 19:39:53 77° W 19:44:13 10° S
Cosmos 1328 3.7 19:35:55 10° N 19:39:56 77° E 19:43:15 15° SSE
Cosmos 1703 3.2 19:41:21 10° N 19:45:20 89° W 19:48:40 14° S
Meteor 2-17 Rocket 4.4 19:39:27 10° N 19:45:38 73° E 19:51:27 12° SSE
Cosmos 614 Rocket 3.9 19:43:10 10° S 19:48:20 65° ESE 19:53:31 10° NNE
Cosmos 1943 Rocket 4.0 19:45:02 10° NW 19:49:43 29° WSW 19:54:25 10° SSW
Cosmos 1300 3.8 19:50:48 26° E 19:50:48 26° E 19:53:39 10° NNE
SPOT 3 Rocket 3.6 19:45:51 10° SSE 19:51:04 81° WSW 19:56:19 10° NNW
Abrixas rocket 2.1 19:48:33 10° W 19:51:31 67° N 19:52:19 42° ENE
Cosmos 2369 Rocket 3.6 19:46:36 10° NW 19:51:46 37° WSW 19:56:53 10° S
Cosmos 2074 Rocket 4.4 19:46:37 10° NNW 19:52:49 64° W 19:59:02 10° S
COSMOS 2455 3.2 19:47:38 10° NNW 19:53:31 50° NE 19:56:40 26° ESE
SL-24 R/B 3.8 19:49:38 10° NNE 19:53:53 85° WNW 19:57:41 10° SSW
Cosmos 1437 4.5 19:52:19 10° NNW 19:55:01 30° W 19:57:42 10° SSW
CZ-2C R/B 3.8 19:51:00 10° NNE 19:55:45 84° WNW 20:00:23 10° SSW
Cosmos 921 Rocket 3.3 19:51:52 10° N 19:55:56 47° ENE 19:57:11 35° ESE
Cosmos 1953 4.3 19:54:29 10° SW 19:58:02 31° WNW 20:01:37 10° N
Cosmos 407 Rocket 3.3 19:54:35 10° S 19:59:42 68° ESE 20:04:48 10° NNE
Cosmos 2228 3.3 19:55:55 10° SSW 20:00:11 68° W 20:04:32 10° N
Cosmos 1953 Rocket 3.8 19:55:47 10° NNW 20:00:15 71° W 20:04:01 14° S
Cosmos 1606 Rocket 4.1 19:58:26 10° SSW 20:02:49 61° WNW 20:07:16 10° N
Cosmos 1908 3.4 19:59:32 10° SSW 20:03:22 70° W 20:07:16 10° N
Cosmos 1818 3.9 20:02:22 10° SW 20:07:47 69° NW 20:13:15 10° NNE
ERS-1 Rocket 4.1 20:07:40 25° E 20:08:35 27° ENE 20:12:46 10° N
ERBS 4.2 20:06:51 10° NW 20:09:33 21° NNE 20:10:29 19° NE
Landsat 7 4.4 20:11:37 35° E 20:12:33 39° ENE 20:16:57 10° N
Meteor 1-11 4.5 20:09:19 10° NNW 20:15:04 70° W 20:19:34 17° S
SPOT 1/Viking Rocket 4.2 20:14:30 34° E 20:15:44 39° ENE 20:20:34 10° N
Cosmos 1943 4.2 20:11:46 10° SW 20:17:13 48° NW 20:22:45 10° NNE
MetOp-B 4.1 20:15:08 35° SE 20:17:23 69° ENE 20:22:43 10° N
APEX 4.5 20:11:38 10° NNW 20:18:15 72° WSW 20:21:11 29° SSE
Cosmos 1461 3.0 20:14:04 10° NW 20:18:36 87° NE 20:19:51 49° SE
Cosmos 1954 Rocket 4.0 20:21:02 36° SSE 20:22:51 53° ESE 20:27:56 10° NNE
SAR-Lupe-2 3.6 20:23:27 10° NNE 20:26:38 66° NE 20:26:38 66° NE
STARLINK-1138 4.5 20:23:06 10° WNW 20:27:04 42° NNE 20:28:06 35° NE
H-2A R/B 4.4 20:24:34 10° SW 20:28:24 20° W 20:32:12 10° NW
Cosmos 1023 Rocket 4.4 20:26:22 10° SSW 20:31:33 86° WNW 20:36:44 10° NNE
STARLINK-1143 4.4 20:28:04 10° WNW 20:32:03 44° NNE 20:32:52 38° NE
CZ-4C R/B 4.2 20:26:44 10° NNW 20:32:16 27° NNE 20:37:07 15° ENE
STARLINK-1228 4.2 20:29:39 10° WNW 20:31:34 37° NW 20:31:34 37° NW
Cosmos 1697 Rocket 4.2 20:29:42 10° N 20:34:03 22° NE 20:35:27 20° ENE
Cosmos 1076 Rocket 3.9 20:31:17 10° N 20:35:03 47° ENE 20:35:03 47° ENE
SPOT 5 3.6 20:36:47 32° NE 20:36:47 32° NE 20:40:13 10° N
STARLINK-1241 4.3 20:33:05 10° WNW 20:37:06 45° NNE 20:37:41 42° NE
CZ-2C R/B 3.1 20:33:30 10° N 20:38:35 59° WNW 20:43:40 10° SSW
Iridium 2 4.3 20:41:59 48° NNE 20:41:59 48° NNE 20:44:53 10° N
STARLINK-1239 4.2 20:38:03 10° WNW 20:42:05 47° NNE 20:42:27 45° NE
NOSS 3-4 (A) 4.2 20:35:52 10° NW 20:42:44 57° WSW 20:46:22 31° S
NOSS 3-4 (C) 4.2 20:35:58 10° NW 20:42:50 57° WSW 20:46:27 31° S
Cosmos 2341 Rocket 4.2 20:36:54 10° NNW 20:43:17 74° W 20:46:39 30° S
STARLINK-1233 4.4 20:41:14 10° WNW 20:43:20 36° NW 20:43:20 36° NW
STARLINK-1212 4.4 20:41:42 10° WNW 20:43:45 36° NW 20:43:45 36° NW
Cosmos 2058 3.3 20:40:56 10° N 20:44:18 50° NE 20:44:18 50° NE
STARLINK-1105 4.5 20:42:08 10° WNW 20:44:12 36° NW 20:44:12 36° NW
STARLINK-1240 4.2 20:43:03 10° WNW 20:47:06 49° NNE 20:47:15 48° NNE
Cosmos 1763 Rocket 4.0 20:44:29 10° NNW 20:49:29 44° ENE 20:49:35 44° ENE
STARLINK-1216 4.2 20:48:02 10° WNW 20:52:02 51° NNE 20:52:02 51° NNE
Terra 2.6 20:55:02 38° NE 20:55:02 38° NE 20:58:54 10° N
STARLINK-1237 4.2 20:53:00 10° WNW 20:56:48 52° N 20:56:48 52° N
RESURS DK-1 4.1 20:53:41 10° N 20:56:27 24° NNE 20:56:27 24° NNE
Cosmos 2218 Rocket 3.9 20:54:35 10° N 21:00:49 86° W 21:02:26 53° S
Resurs 01 Rocket 3.4 20:59:16 20° SW 21:01:08 27° W 21:04:56 10° NW
Cosmos 192 4.3 20:56:16 10° NNW 21:01:06 75° NE 21:01:06 75° NE
STARLINK-1202 4.3 20:57:59 10° WNW 21:01:35 51° N 21:01:35 51° N
Cosmos 1980 Rocket 3.8 20:58:08 10° N 21:02:18 21° NE 21:03:10 20° NE
Cosmos 1892 3.8 20:59:18 10° N 21:01:53 39° N 21:01:53 39° N
STARLINK-1203 4.3 21:02:21 10° WNW 21:05:50 52° NNW 21:05:50 52° NNW
USA 234 3.2 21:02:05 10° NE 21:08:39 89° NNW 21:15:13 10° WSW
CARTOSAT-1 4.1 21:10:07 53° N 21:10:07 53° N 21:13:30 10° N
Cosmos 1656 3.9 21:04:55 10° NNW 21:10:32 56° ENE 21:10:37 56° ENE
SL-4 R/B 3.8 21:07:52 10° W 21:09:22 23° WNW 21:09:22 23° WNW
Iridium 4 Rocket 3.5 21:07:14 10° N 21:10:41 55° NNW 21:10:41 55° NNW
Spot 2 Rocket 4.2 21:11:43 41° SW 21:12:46 47° W 21:17:42 10° NNW
ATLAS 2AS CENTAUR R/B 3.9 21:08:10 10° NW 21:14:44 34° WSW 21:17:27 26° SSW
Cosmos 2181 Rocket 4.3 21:12:14 31° SSW 21:15:20 65° WNW 21:21:30 10° N
Cosmos 1825 4.3 21:15:06 10° N 21:16:33 21° NNE 21:16:33 21° NNE
ATLAS 5 CENTAUR R/B 2.7 21:17:24 10° WSW 21:21:28 44° NW 21:26:05 10° NNE
Cosmos 841 Rocket 4.2 21:19:48 10° NNW 21:24:13 46° NE 21:24:13 46° NE
Cosmos 1570 Rocket 4.4 21:25:15 10° NNW 21:29:51 58° NNE 21:29:51 58° NNE
Cosmos 2366 rocket 4.5 21:26:54 10° NNW 21:32:51 53° W 21:34:06 46° SW
Mayak 1.3 21:29:58 10° NNE 21:30:34 14° NNE 21:30:34 14° NNE
Cosmos 468 Rocket 4.3 21:29:18 10° NNW 21:33:48 62° WNW 21:33:48 62° WNW
COSMOS 2455 3.9 21:33:55 10° NW 21:39:17 34° WSW 21:39:49 34° WSW
Nadezhda 3 Rocket 4.1 21:43:48 68° NE 21:43:48 68° NE 21:49:26 10° NNE
COSMOS 2406 4.1 21:45:30 39° NE 21:45:30 39° NE 21:49:02 10° NNE
Cosmos 1833 Rocket 4.4 21:47:50 22° NE 21:47:50 22° NE 21:49:51 10° NE
ERS-1 Rocket 3.9 21:47:39 43° W 21:47:39 43° W 21:51:59 10° NNW
ATLAS CENTAUR R/B 3.7 21:46:01 10° NNW 21:47:36 20° N 21:47:36 20° N
Cosmos 2369 4.2 22:01:21 10° NNW 22:05:45 55° NNW 22:05:45 55° NNW
Meteor 2-10 Rocket 4.5 22:12:36 46° NNW 22:12:36 46° NNW 22:16:44 10° N
Cosmos 1821 Rocket 4.3 22:08:41 10° NNW 22:14:33 61° WNW 22:14:33 61° WNW
Cosmos 1697 Rocket 3.4 22:13:01 10° NNW 22:17:11 50° NW 22:17:11 50° NW
CZ-4C R/B 3.0 22:15:04 10° NW 22:22:06 66° NE 22:22:18 65° NE
Cosmos 1934 Rocket 4.3 22:17:11 10° N 22:22:23 63° NNW 22:22:23 63° NNW
Meteor 2-3 Rocket 4.5 22:22:31 10° NNW 22:26:44 50° NNW 22:26:44 50° NNW
Terra 3.9 22:33:54 22° WNW 22:33:54 22° WNW 22:36:22 10° NW
SL-16 R/B 3.7 22:28:08 10° N 22:32:21 28° NE 22:32:21 28° NE
Cosmos 1605 Rocket 4.5 22:27:53 10° N 22:32:34 54° N 22:32:34 54° N
Cosmos 2360 Rocket 4.3 22:35:14 10° N 22:38:57 18° NE 22:39:34 17° NE
Cosmos 2322 Rocket 3.8 22:38:02 10° N 22:42:08 28° NE 22:42:08 28° NE
Cosmos 1980 Rocket 3.3 22:41:24 10° NNW 22:44:56 40° NNW 22:44:56 40° NNW
USA 234 4.2 22:45:12 10° NE 22:51:20 45° NNW 22:57:28 10° W
Mayak 1.6 23:06:03 10° NNW 23:07:09 15° NNW 23:07:09 15° NNW
Cosmos 2082 Rocket 3.5 23:15:18 36° N 23:15:18 36° N 23:18:40 10° NNE
Cosmos 2344 4.3 23:07:37 10° NW 23:17:17 80° SW 23:18:38 72° S
Cosmos 1833 Rocket 4.2 23:29:29 32° NNW 23:29:29 32° NNW 23:33:41 10° NNE
Cosmos 2219 Rocket 4.4 23:35:00 10° N 23:38:49 18° NE 23:40:10 17° ENE
